Weather observations for the past three days for
Fullerton, Fullerton Municipal Airport
Imperial (Metric)
Date Time (pdt) Wind (mph) Vis. (mi.) Weather Sky Cond. Temperature (ºF) Relative Humidity Wind Chill (°F) Heat Index (°F) Pressure Precipitation (in)
Air Dwpt 6 hour altimeter (in) sea level (mb) 1 hr 3 hr 6 hr
Max. Min.
17 20:53 S 3 10.00 Fair CLR 75 61 62% 77 29.92 1012.9
17 19:53 S 7 9.00 Fair CLR 78.1 61 56% 80 29.89 1011.9
17 18:53 Vrbl 5 9.00 Fair CLR 82 61 49% 83 29.87 1011.3
17 17:53 S 8 10.00 Fair CLR 82 61 49% 83 29.86 1011.1
17 16:53 Calm 10.00 Fair CLR 81 61 84.9 73.9 51% 82 29.87 1011.3
17 15:53 SW 9 10.00 Fair CLR 82.9 60.1 46% 83 29.89 1012.0
17 14:53 SW 9 10.00 Fair CLR 84 60.1 44% 84 29.91 1012.6
17 13:53 SW 8 10.00 Fair CLR 81 61 51% 82 29.93 1013.5
17 12:53 Vrbl 5 9.00 Fair CLR 79 62.1 56% 80 29.96 1014.3
17 11:53 Vrbl 3 8.00 Partly Cloudy SCT110 75 62.1 64% 77 29.97 1014.8
17 10:53 S 6 8.00 A Few Clouds FEW021 73.9 63 73.9 66.9 69% 29.98 1015.2
17 09:53 Vrbl 3 8.00 Fair CLR 73.9 63 69% 29.98 1015.0
17 08:53 Vrbl 3 8.00 A Few Clouds FEW015 72 63 73% 29.97 1014.9
17 07:53 S 5 8.00 Mostly Cloudy BKN014 68 64.9 90% 29.98 1015.1
17 06:53 S 3 8.00 Mostly Cloudy BKN014 66.9 64.9 93% 29.97 1014.8
17 05:53 SE 5 9.00 Partly Cloudy SCT014 66.9 66 97% 29.95 1014.2
17 04:53 S 3 9.00 Mostly Cloudy BKN012 66.9 66 70 66.9 97% 29.94 1013.9
17 03:53 Calm 9.00 Fair CLR 66.9 64.9 93% 29.93 1013.5
17 02:53 Calm 9.00 Fair CLR 68 64.9 90% 29.94 1013.7
17 01:53 S 5 10.00 Fair CLR 68 64.9 90% 29.93 1013.4
17 00:53 Calm 10.00 Fair CLR 69.1 59 70% 29.94 1013.7
16 23:53 Calm 10.00 Fair CLR 70 57.9 66% 29.93 1013.5
16 22:53 W 3 10.00 Fair CLR 70 57 82.9 70 64% 29.93 1013.4
16 21:53 W 3 10.00 Fair CLR 71.1 57 61% 29.93 1013.5
16 20:53 W 5 10.00 Fair CLR 72 55.9 57% 29.92 1013.1
16 19:53 W 7 10.00 Fair CLR 75 55.9 52% 78 29.91 1012.7
16 18:53 NW 6 10.00 Fair CLR 79 60.1 52% 80 29.9 1012.3
16 17:53 W 7 9.00 Fair CLR 82 61 49% 83 29.9 1012.2
16 16:53 S 7 10.00 Fair CLR 80.1 62.1 82.9 77 54% 81 29.91 1012.7
16 15:53 SW 9 9.00 Fair CLR 81 62.1 53% 82 29.93 1013.4
16 14:53 SW 10 10.00 Fair CLR 80.1 62.1 54% 81 29.94 1013.9
16 13:53 SW 8 9.00 Fair CLR 81 62.1 53% 82 29.96 1014.4
16 12:53 Vrbl 7 9.00 Fair CLR 82 63 53% 83 29.97 1014.7
16 11:53 Vrbl 3 9.00 Fair CLR 80.1 60.1 51% 81 29.99 1015.3
16 10:53 Vrbl 5 8.00 Fair CLR 77 61 78.1 66.9 58% 79 30 1015.6
16 09:53 SE 5 7.00 A Few Clouds FEW017 73 62.1 69% 30.01 1015.9
16 08:53 Calm 7.00 Overcast OVC015 69.1 64.9 87% 30.01 1016.1
16 07:53 S 3 8.00 Overcast OVC014 68 64 87% 30.01 1016.1
16 06:53 Calm 7.00 Partly Cloudy SCT011 66.9 64.9 93% 29.98 1015.1
16 05:53 Calm 8.00 Overcast OVC011 66.9 64.9 93% 29.97 1014.8
16 04:53 SE 5 9.00 Overcast OVC010 66.9 64.9 71.1 66 93% 29.96 1014.5
16 03:53 SE 5 9.00 Fair CLR 66.9 64.9 93% 29.96 1014.3
16 02:53 S 3 9.00 Fair CLR 66.9 66 97% 29.96 1014.4
16 01:53 S 5 9.00 Fair CLR 70 64.9 84% 29.96 1014.4
16 00:53 S 3 10.00 Fair CLR 69.1 64.9 87% 29.97 1014.7
15 23:53 N 3 10.00 Fair CLR 70 60.1 71% 29.98 1015.0
15 22:53 W 3 10.00 Fair CLR 70 61 84 70 73% 29.97 1014.9
15 21:53 W 3 10.00 Fair CLR 72 61 68% 29.96 1014.5
15 20:53 W 3 10.00 Fair CLR 73 57 57% 29.94 1013.7
15 19:53 W 5 10.00 Fair CLR 75 57.9 55% 78 29.91 1012.9
15 18:53 W 8 10.00 Fair CLR 77 59 54% 79 29.91 1012.7
15 17:53 Vrbl 7 10.00 Fair CLR 81 60.1 49% 82 29.91 1012.6
15 16:53 Vrbl 6 9.00 Fair CLR 84 61 84 75 46% 84 29.91 1012.6
15 15:53 S 6 9.00 Fair CLR 82 62.1 51% 83 29.92 1013.1
15 14:53 SW 9 9.00 Fair CLR 82 62.1 51% 83 29.94 1013.7
15 13:53 Vrbl 7 8.00 Fair CLR 81 62.1 53% 82 29.97 1014.6
15 12:53 Vrbl 7 9.00 Fair CLR 82 62.1 51% 83 29.99 1015.3
15 11:53 S 5 8.00 Fair CLR 79 61 54% 80 30.01 1016.1
15 10:53 S 3 7.00 Fair CLR 75 61 75 66.9 62% 77 30.03 1016.6
15 09:53 S 3 7.00 A Few Clouds FEW017 73 62.1 69% 30.04 1017.2
15 08:53 Calm 7.00 Overcast OVC016 70 63 79% 30.05 1017.5
15 07:53 Calm 6.00 Fog/Mist OVC014 68 64.9 90% 30.06 1017.7
15 06:53 Calm 7.00 Overcast OVC013 66.9 64.9 93% 30.04 1017.2
15 05:53 Calm 9.00 Overcast OVC013 66.9 64 91% 30.04 1017.0
15 04:53 Calm 9.00 Overcast OVC015 66.9 64 70 66 91% 30.03 1016.7
15 03:53 W 3 9.00 Fair CLR 66.9 64 91% 30.02 1016.4
15 02:53 Calm 9.00 Fair CLR 66.9 64 91% 30.01 1016.2
15 01:53 Calm 9.00 Fair CLR 68 64.9 90% 30.01 1016.2
15 00:53 Calm 9.00 Fair CLR 68 64.9 90% 30.02 1016.3
14 23:53 Vrbl 3 9.00 Fair CLR 69.1 64.9 87% 30.01 1016.2
14 22:53 W 3 10.00 Fair CLR 70 64.9 82.9 70 84% 30.01 1016.1
14 21:53 W 3 10.00 Fair CLR 72 64.9 79% 30.01 1016.1
Date Time (pdt) Wind (mph) Vis. (mi.) Weather Sky Cond. Air Dwpt Max. Min. Relative Humidity Wind Chill (°F) Heat Index (°F) altimeter (in) sea level (mb) 1 hr 3 hr 6 hr
6 hour
Temperature (ºF) Pressure Precipitation (in)